Flag for France Weather past 2 weeks in Strasbourg, France

Now
54 °F

Overcast.


Feels Like: 54 °F
Forecast: 54 / 70 °F
Wind: 2 mph from North

Location: Strasbourg Airport

Current Time: Oct 1, 2014 at 7:25:05 AM

Latest Report: Oct 1, 2014 at 7:00 AM


Visibility: N/A

Pressure: 30.30 "Hg

Humidity: 94%

Dew point: 52 °F

Location of StrasbourgLocation

Historic Weather in Strasbourg — Graph

°F

Strasbourg temperature yesterday

Maximum temperature yesterday: 70 °F (at 1:30 PM)
Minimum temperature yesterday: 57 °F (at 11:30 PM)
Average temperature yesterday: 64 °F

Past Weeks' High & Low Weather Summary

 TemperatureHumidityPressure
High79 °F (Sep 19, 1:30 PM)100% (Sep 16, 7:00 AM)30.36 "Hg (Sep 16, 7:00 AM)
Low41 °F (Sep 23, 2:30 AM)46% (Sep 26, 5:00 PM)29.83 "Hg (Sep 17, 4:00 PM)
Average61 °F82%30.10 "Hg
* Reported Sep 16 6:00 AM — Oct 1 6:30 AM, Strasbourg, Weather by CustomWeather, © 2014

Note: Actual official high and low records may vary slightly from our data, if they occured in-between our weather recording intervals... More about our weather records

Advertising

Strasbourg weather history for previous 24 hours

 ConditionsComfort  
Time TempWeatherWind HumidityBarometerVisibility
6:30 AM
Oct 1
52 °FPassing clouds.No wind100%30.30 "HgN/A
6:00 AM52 °FFog.No wind100%30.30 "Hg0 mi
5:30 AM52 °FFog.2 mph100%30.30 "Hg1 mi
5:00 AM52 °FDense fog.1 mph100%30.30 "Hg1 mi
4:30 AM52 °FFog.1 mph100%30.30 "Hg2 mi
4:00 AM54 °FLight fog.No wind94%30.30 "Hg4 mi
3:30 AM54 °FFog.No wind94%30.30 "Hg1 mi
3:00 AM54 °FFog.2 mph94%30.30 "Hg0 mi
2:30 AM55 °FFog.2 mph94%30.30 "Hg1 mi
2:00 AM55 °FFog.2 mph94%30.30 "Hg0 mi
1:30 AM55 °FLight fog.No wind94%30.30 "Hg2 mi
1:00 AM55 °FPassing clouds.No wind94%30.30 "Hg4 mi
12:30 AM55 °FClear.1 mph100%30.30 "Hg5 mi
12:00 AM57 °FPassing clouds.2 mph94%30.30 "HgN/A
11:30 PM
Sep 30
57 °FPassing clouds.No wind94%30.30 "Hg6 mi
10:30 PM59 °FClear.3 mph94%30.30 "HgN/A
10:00 PM61 °FPassing clouds.No wind94%30.30 "HgN/A
9:30 PM61 °FPassing clouds.1 mph94%30.30 "HgN/A
9:00 PM61 °FPassing clouds.No wind94%30.30 "HgN/A
8:30 PM63 °FPassing clouds.1 mph88%30.30 "HgN/A
8:00 PM64 °FPartly sunny.No wind88%30.30 "HgN/A
7:30 PM64 °FPartly sunny.1 mph88%30.27 "HgN/A
7:00 PM68 °FPartly sunny.No wind78%30.27 "HgN/A
6:30 PM70 °FClear.2 mph69%30.27 "HgN/A
6:00 PM70 °FOvercast.1 mph73%30.27 "HgN/A
5:30 PM70 °FMore clouds than sun.2 mph69%30.27 "HgN/A
5:00 PM70 °FOvercast.3 mph69%30.27 "HgN/A
4:30 PM70 °FClear.3 mph69%30.30 "HgN/A
4:00 PM70 °FClear.2 mph73%30.30 "HgN/A
3:30 PM70 °FOvercast.1 mph69%30.30 "HgN/A
3:00 PM70 °FOvercast.1 mph69%30.30 "HgN/A
2:30 PM68 °FOvercast.1 mph73%30.30 "HgN/A
2:00 PM70 °FOvercast.2 mph73%30.30 "HgN/A
1:30 PM70 °FOvercast.2 mph73%30.30 "HgN/A
1:00 PM68 °FBroken clouds.3 mph73%30.30 "HgN/A
12:30 PM68 °FPartly sunny.2 mph78%30.30 "HgN/A
12:00 PM66 °FOvercast.2 mph83%30.30 "HgN/A
11:30 AM66 °FBroken clouds.3 mph83%30.30 "HgN/A
11:00 AM64 °FPartly sunny.3 mph88%30.30 "HgN/A
10:30 AM64 °FOvercast.2 mph88%30.30 "HgN/A
10:00 AM64 °FMostly cloudy.2 mph88%30.30 "HgN/A
9:30 AM63 °FMostly cloudy.2 mph94%30.30 "HgN/A
9:00 AM63 °FMostly cloudy.No wind94%30.27 "HgN/A
8:30 AM61 °FPartly sunny.No wind100%30.27 "HgN/A
8:00 AM61 °FOvercast.2 mph94%30.27 "HgN/A
7:30 AM61 °FOvercast.1 mph94%30.27 "HgN/A
7:00 AM61 °FMostly cloudy.3 mph94%30.27 "HgN/A
Weather by CustomWeather, © 2014

See weather overviewHow to use our weather pages